Wilmington, DE

11:21 PM EST on January 19, 2018 (GMT -0500)
New Castle County

Weather History for KILG - April, 2013

Change the Weather History Date:

Tuesday, April 2, 2013

  Actual Average Record
Temperature  
Mean Temperature 39 °F 49 °F  
Max Temperature 47 °F 59 °F 83 °F (1967)
Min Temperature 30 °F 39 °F 20 °F (1924)
Degree Days  
Heating Degree Days 26 16  
Month to date heating degree days 39 33  
Since 1 July heating degree days 4194 4339  
Cooling Degree Days 0 0  
Month to date cooling degree days 0 0  
Year to date cooling degree days 0 1  
Moisture  
Dew Point 14 °F    
Average Humidity 39    
Maximum Humidity 53    
Minimum Humidity 25    
Precipitation  
Precipitation 0.00 in 0.14 in 2.18 in (2005)
Month to date precipitation T 0.27  
Year to date precipitation 8.55 9.88  
Snow  
Snow 0.00 in 0.00 in 0.60 in (1965)
Month to date snowfall 0.0 0.0  
Since 1 July snowfall 5.5 19.9  
Snow Depth 0.00 in    
Sea Level Pressure  
Sea Level Pressure 30.07 in    
Wind  
Wind Speed 12 mph (WNW)    
Max Wind Speed 26 mph    
Max Gust Speed 33 mph    
Visibility 10 miles    
Events      
T = Trace of Precipitation, MM = Missing Value Source: NWS Daily Summary

Daily Weather History Graph

Daily Weather History Graph

Search for Another Location

Airport or City:

Trip Planner

Search our weather history database for the weather conditions in past years. The results will help you decide how hot, cold, wet, or windy it might be!

Date:

Astronomy

Apr. 02, 2013 Rise Set
Actual Time 6:44 AM EDT 7:27 PM EDT
Civil Twilight 6:17 AM EDT 7:55 PM EDT
Nautical Twilight 5:45 AM EDT 8:27 PM EDT
Astronomical Twilight 5:12 AM EDT 9:00 PM EDT
Moon 1:29 AM EDT (4/2) 11:33 AM EDT (4/2)
Length of Visible Light 13h 37m
Length of Day
12h 43m
Waning Gibbous, 56% of the Moon is Illuminated
Apr 2
Waning Gibbous
Apr 3
Last Quarter
Apr 10
New
Apr 18
First Quarter
Apr 25
Full

Hourly Weather History & Observations

Time (EDT) Temp. Windchill Dew Point Humidity Pressure Visibility Wind Dir Wind Speed Gust Speed Precip Events Conditions
12:51 AM 37.9 °F 30.9 °F 12.9 °F 36% 29.99 in 10.0 mi NW 10.4 mph - N/A   Clear
1:51 AM 33.8 °F 27.7 °F 12.2 °F 41% 30.00 in 10.0 mi NW 6.9 mph - N/A   Clear
2:51 AM 32.0 °F 25.6 °F 12.9 °F 45% 30.00 in 10.0 mi NW 6.9 mph - N/A   Clear
3:51 AM 30.2 °F 23.4 °F 14.0 °F 51% 30.00 in 10.0 mi NW 6.9 mph - N/A   Clear
4:51 AM 30.9 °F 24.3 °F 14.0 °F 50% 30.01 in 10.0 mi WNW 6.9 mph - N/A   Clear
5:51 AM 30.0 °F 22.4 °F 15.1 °F 54% 30.02 in 10.0 mi WNW 8.1 mph - N/A   Clear
6:51 AM 32.0 °F 28.7 °F 14.0 °F 48% 30.04 in 10.0 mi WNW 3.5 mph - N/A   Clear
7:51 AM 34.0 °F 28.8 °F 16.0 °F 48% 30.07 in 10.0 mi West 5.8 mph - N/A   Clear
8:51 AM 39.2 °F 31.6 °F 15.8 °F 39% 30.09 in 10.0 mi WNW 12.7 mph 19.6 mph N/A   Clear
9:51 AM 41.0 °F 32.8 °F 15.1 °F 35% 30.09 in 10.0 mi WNW 16.1 mph - N/A   Clear
10:51 AM 42.1 °F 33.1 °F 16.0 °F 35% 30.09 in 10.0 mi WNW 20.7 mph 25.3 mph N/A   Clear
11:51 AM 44.1 °F 35.7 °F 15.1 °F 31% 30.09 in 10.0 mi WNW 20.7 mph 28.8 mph N/A   Mostly Cloudy
12:51 PM 44.6 °F 36.6 °F 15.8 °F 31% 30.07 in 10.0 mi WNW 19.6 mph 29.9 mph N/A   Scattered Clouds
1:51 PM 44.6 °F 36.9 °F 14.0 °F 29% 30.06 in 10.0 mi WNW 18.4 mph 27.6 mph N/A   Scattered Clouds
2:51 PM 46.4 °F 40.1 °F 14.0 °F 27% 30.05 in 10.0 mi West 15.0 mph 32.2 mph N/A   Partly Cloudy
3:51 PM 46.0 °F 37.8 °F 14.0 °F 28% 30.05 in 10.0 mi NW 23.0 mph 28.8 mph N/A   Partly Cloudy
4:51 PM 46.0 °F 38.8 °F 12.9 °F 26% 30.05 in 10.0 mi WNW 18.4 mph 29.9 mph N/A   Clear
5:51 PM 45.0 °F 37.6 °F 12.9 °F 27% 30.06 in 10.0 mi NW 17.3 mph - N/A   Clear
6:51 PM 44.1 °F 36.8 °F 10.9 °F 26% 30.08 in 10.0 mi WNW 16.1 mph 24.2 mph N/A   Clear
7:51 PM 42.1 °F 36.1 °F 12.0 °F 29% 30.10 in 10.0 mi West 10.4 mph - N/A   Clear
8:51 PM 39.0 °F 32.8 °F 12.9 °F 34% 30.13 in 10.0 mi WNW 9.2 mph - N/A   Clear
9:51 PM 37.9 °F 30.9 °F 12.9 °F 36% 30.15 in 10.0 mi WNW 10.4 mph - N/A   Clear
10:51 PM 37.0 °F 33.3 °F 12.9 °F 37% 30.16 in 10.0 mi West 4.6 mph - N/A   Clear
11:51 PM 36.0 °F 29.6 °F 12.9 °F 39% 30.16 in 10.0 mi West 8.1 mph - N/A   Clear